| time (UTC) | temp F | wind direction | speed knots | gust knots | rain 1hr in | rain 24hr in | rain mn in | humidity % | barometer mb |
| 20260906100003 | 73 | 48 | 1.7 | 4.3 | 0.10 | 0.53 | 0.24 | 96 | 1012.9 |
| 20260906094602 | 73 | 304 | 0.0 | 6.1 | 0.09 | 0.52 | 0.23 | 95 | 1013.4 |
| 20260906093056 | 73 | 351 | 0.9 | 6.1 | 0.05 | 0.46 | 0.18 | 96 | 1013.7 |
| 20260906091536 | 73 | 355 | 0.0 | 7.0 | 0.03 | 0.44 | 0.15 | 96 | 1013.7 |
| 20260906090002 | 73 | 350 | 0.0 | 2.6 | 0.02 | 0.43 | 0.14 | 96 | 1013.3 |
| 20260906084609 | 73 | 351 | 0.0 | 0.0 | 0.02 | 0.43 | 0.14 | 96 | 1012.6 |
| 20260906083102 | 73 | 35 | 0.0 | 0.9 | 0.00 | 0.41 | 0.12 | 96 | 1012.3 |
| 20260906081553 | 73 | 35 | 0.0 | 0.0 | 0.00 | 0.41 | 0.12 | 96 | 1012.5 |
| 20260906080015 | 73 | 35 | 0.0 | 0.0 | 0.00 | 0.41 | 0.12 | 96 | 1012.3 |
| 20260906074528 | 73 | 35 | 0.0 | 0.0 | 0.00 | 0.41 | 0.12 | 96 | 1012.4 |
| 20260906073111 | 72 | 35 | 0.0 | 0.0 | 0.00 | 0.41 | 0.12 | 96 | 1012.1 |
| 20260906071605 | 72 | 35 | 0.0 | 0.0 | 0.00 | 0.41 | 0.12 | 95 | 1012.2 |
| 20260906070056 | 72 | 35 | 0.0 | 2.6 | 0.00 | 0.41 | 0.12 | 95 | 1012.4 |
| 20260906064540 | 72 | 37 | 0.0 | 2.6 | 0.00 | 0.41 | 0.12 | 95 | 1012.3 |
| 20260906063010 | 72 | 34 | 0.0 | 0.0 | 0.00 | 0.41 | 0.12 | 95 | 1012.3 |
| 20260906061636 | 72 | 34 | 0.0 | 0.9 | 0.01 | 0.41 | 0.12 | 95 | 1011.9 |
| 20260906060109 | 71 | 33 | 0.0 | 0.9 | 0.10 | 0.41 | 0.12 | 94 | 1011.9 |
| 20260906054557 | 71 | 12 | 0.9 | 3.5 | 0.28 | 0.41 | 0.12 | 95 | 1011.9 |
| 20260906053044 | 71 | 276 | 0.0 | 2.6 | 0.41 | 0.41 | 0.12 | 93 | 1011.8 |
| 20260906051511 | 72 | 278 | 0.0 | 3.5 | 0.40 | 0.40 | 0.11 | 93 | 1012.0 |
| 20260906050116 | 73 | 283 | 2.6 | 11.3 | 0.31 | 0.31 | 0.02 | 91 | 1012.3 |
| 20260906044544 | 77 | 322 | 0.9 | 7.0 | 0.13 | 0.13 | 0.13 | 83 | 1012.8 |
| 20260906043011 | 81 | 16 | 4.3 | 11.3 | 0.00 | 0.00 | 0.00 | 76 | 1013.0 |
| 20260906041614 | 81 | 95 | 0.9 | 6.1 | 0.00 | 0.00 | 0.00 | 86 | 1012.9 |
| 20260906040113 | 82 | 94 | 0.0 | 0.9 | 0.00 | 0.00 | 0.00 | 86 | 1012.7 |
| 20260906034547 | 82 | 94 | 0.0 | 5.2 | 0.00 | 0.00 | 0.00 | 86 | 1012.8 |
| 20260906033046 | 81 | 89 | 0.0 | 3.5 | 0.00 | 0.00 | 0.00 | 87 | 1012.6 |
| 20260906031533 | 81 | 82 | 0.0 | 3.5 | 0.00 | 0.00 | 0.00 | 88 | 1012.6 |
| 20260906030115 | 81 | 78 | 0.9 | 5.2 | 0.00 | 0.00 | 0.00 | 88 | 1012.6 |
| 20260906024600 | 82 | 39 | 0.0 | 0.0 | 0.00 | 0.00 | 0.00 | 87 | 1011.8 |
| 20260906023102 | 82 | 39 | 0.0 | 0.0 | 0.00 | 0.00 | 0.00 | 86 | 1011.7 |
| 20260906021541 | 82 | 39 | 0.0 | 0.0 | 0.00 | 0.00 | 0.00 | 86 | 1011.7 |
| 20260906020006 | 82 | 39 | 0.0 | 0.0 | 0.00 | 0.00 | 0.00 | 86 | 1011.7 |
| 20260906014629 | 83 | 39 | 0.0 | 0.0 | 0.00 | 0.00 | 0.00 | 85 | 1011.4 |
| 20260906013100 | 83 | 39 | 0.0 | 0.0 | 0.00 | 0.00 | 0.00 | 84 | 1011.0 |
| 20260906011556 | 83 | 39 | 0.0 | 0.0 | 0.00 | 0.00 | 0.00 | 86 | 1010.6 |
| 20260906010042 | 83 | 39 | 0.0 | 0.0 | 0.00 | 0.00 | 0.00 | 85 | 1010.3 |
| 20260906004515 | 84 | 39 | 0.0 | 0.0 | 0.00 | 0.00 | 0.00 | 81 | 1010.1 |
| 20260906003006 | 85 | 39 | 0.0 | 0.0 | 0.00 | 0.00 | 0.00 | 79 | 1010.3 |
| 20260906001607 | 86 | 39 | 0.0 | 0.0 | 0.00 | 0.00 | 0.00 | 79 | 1010.2 |
| 20260906000108 | 87 | 39 | 0.0 | 0.0 | 0.00 | 0.00 | 0.00 | 79 | 1010.2 |
| 20260905234555 | 88 | 39 | 0.0 | 0.0 | 0.00 | 0.00 | 0.00 | 77 | 1010.3 |
| 20260905233038 | 90 | 39 | 0.0 | 0.0 | 0.00 | 0.00 | 0.00 | 74 | 1010.4 |
| 20260905231505 | 92 | 39 | 0.0 | 0.0 | 0.00 | 0.00 | 0.00 | 70 | 1010.2 |
| 20260905230103 | 93 | 39 | 0.0 | 0.0 | 0.00 | 0.00 | 0.00 | 67 | 1010.3 |
| 20260905224557 | 94 | 39 | 0.0 | 0.0 | 0.00 | 0.00 | 0.00 | 63 | 1010.4 |
| 20260905223034 | 95 | 39 | 0.0 | 0.0 | 0.00 | 0.00 | 0.00 | 61 | 1010.3 |
| 20260905221502 | 96 | 39 | 0.0 | 0.0 | 0.00 | 0.00 | 0.00 | 55 | 1010.3 |
| 20260905220112 | 96 | 39 | 0.0 | 0.0 | 0.00 | 0.00 | 0.00 | 54 | 1010.2 |
| 20260905214550 | 96 | 39 | 0.0 | 0.0 | 0.00 | 0.00 | 0.00 | 50 | 1010.2 |
| 20260905213016 | 97 | 40 | 0.0 | 0.0 | 0.00 | 0.00 | 0.00 | 50 | 1010.4 |
| 20260905211506 | 98 | 39 | 0.0 | 3.5 | 0.00 | 0.00 | 0.00 | 51 | 1010.5 |
| 20260905210107 | 99 | 30 | 0.0 | 2.6 | 0.00 | 0.00 | 0.00 | 49 | 1010.7 |
| 20260905204549 | 99 | 32 | 0.0 | 0.0 | 0.00 | 0.00 | 0.00 | 50 | 1010.7 |
| 20260905203016 | 99 | 332 | 0.0 | 0.0 | 0.00 | 0.00 | 0.00 | 50 | 1010.8 |
| 20260905201617 | 99 | 27 | 0.0 | 4.3 | 0.00 | 0.00 | 0.00 | 50 | 1011.0 |
| 20260905194554 | 99 | 48 | 0.0 | 3.5 | 0.00 | 0.00 | 0.00 | 46 | 1011.2 |
| 20260905193046 | 99 | 60 | 0.0 | 6.1 | 0.00 | 0.00 | 0.00 | 54 | 1011.4 |
| 20260905191536 | 98 | 57 | 0.9 | 7.0 | 0.00 | 0.00 | 0.00 | 52 | 1011.7 |
| 20260905190116 | 98 | 115 | 0.9 | 7.0 | 0.00 | 0.00 | 0.00 | 55 | 1011.9 |
| 20260905184602 | 98 | 127 | 1.7 | 4.3 | 0.00 | 0.00 | 0.00 | 52 | 1012.1 |
| 20260905183046 | 97 | 100 | 0.9 | 5.2 | 0.00 | 0.00 | 0.00 | 53 | 1012.4 |
| 20260905181510 | 97 | 106 | 3.5 | 7.0 | 0.00 | 0.00 | 0.00 | 55 | 1012.7 |
| 20260905174554 | 97 | 75 | 0.0 | 3.5 | 0.00 | 0.00 | 0.00 | 54 | 1013.1 |
| 20260905173045 | 97 | 360 | 0.0 | 0.0 | 0.00 | 0.00 | 0.00 | 55 | 1013.2 |
| 20260905171513 | 97 | 18 | 0.0 | 1.7 | 0.00 | 0.00 | 0.00 | 57 | 1013.4 |
| 20260905170012 | 97 | 22 | 0.0 | 1.7 | 0.00 | 0.00 | 0.00 | 53 | 1013.5 |
| 20260905164611 | 96 | 355 | 0.0 | 3.5 | 0.00 | 0.00 | 0.00 | 58 | 1013.7 |
| 20260905163059 | 95 | 340 | 0.0 | 2.6 | 0.00 | 0.00 | 0.00 | 63 | 1013.9 |
| 20260905161545 | 95 | 34 | 0.0 | 0.0 | 0.00 | 0.00 | 0.00 | 63 | 1014.0 |
| 20260905160027 | 93 | 55 | 0.0 | 0.0 | 0.00 | 0.00 | 0.00 | 68 | 1014.0 |
| 20260905154607 | 92 | 80 | 0.0 | 0.0 | 0.00 | 0.00 | 0.00 | 69 | 1014.1 |
| 20260905153100 | 91 | 80 | 0.0 | 0.0 | 0.00 | 0.00 | 0.00 | 70 | 1014.2 |
| 20260905151545 | 91 | 80 | 0.0 | 1.7 | 0.00 | 0.00 | 0.00 | 72 | 1014.2 |
| 20260905150009 | 88 | 80 | 0.0 | 0.0 | 0.00 | 0.00 | 0.00 | 77 | 1014.2 |
| 20260905144612 | 87 | 80 | 0.0 | 0.0 | 0.00 | 0.00 | 0.00 | 77 | 1014.4 |
| 20260905143057 | 87 | 80 | 0.0 | 0.0 | 0.00 | 0.00 | 0.00 | 78 | 1014.3 |
| 20260905141552 | 85 | 80 | 0.0 | 0.0 | 0.00 | 0.00 | 0.00 | 79 | 1014.3 |
| 20260905140033 | 84 | 80 | 0.0 | 0.0 | 0.00 | 0.00 | 0.00 | 80 | 1014.4 |
| 20260905134611 | 81 | 80 | 0.0 | 0.0 | 0.00 | 0.00 | 0.00 | 85 | 1014.5 |
| 20260905133106 | 79 | 80 | 0.0 | 0.0 | 0.00 | 0.00 | 0.00 | 90 | 1014.7 |
| 20260905131602 | 78 | 80 | 0.0 | 0.0 | 0.00 | 0.00 | 0.00 | 93 | 1014.7 |
| 20260905130041 | 76 | 80 | 0.0 | 0.0 | 0.00 | 0.00 | 0.00 | 95 | 1014.7 |
| 20260905124506 | 75 | 80 | 0.0 | 0.0 | 0.00 | 0.00 | 0.00 | 96 | 1014.8 |
| 20260905123110 | 74 | 80 | 0.0 | 0.0 | 0.00 | 0.00 | 0.00 | 96 | 1014.8 |
| 20260905121602 | 74 | 80 | 0.0 | 0.0 | 0.00 | 0.00 | 0.00 | 96 | 1014.7 |
| 20260905120058 | 73 | 80 | 0.0 | 0.0 | 0.00 | 0.00 | 0.00 | 96 | 1014.5 |
| 20260905114543 | 73 | 80 | 0.0 | 0.0 | 0.00 | 0.00 | 0.00 | 95 | 1014.3 |
| 20260905113012 | 73 | 80 | 0.0 | 0.0 | 0.00 | 0.00 | 0.00 | 95 | 1014.2 |
| 20260905111614 | 73 | 80 | 0.0 | 0.0 | 0.00 | 0.00 | 0.00 | 95 | 1014.0 |
| 20260905110101 | 73 | 80 | 0.0 | 0.0 | 0.00 | 0.00 | 0.00 | 95 | 1013.9 |
| 20260905104552 | 74 | 80 | 0.0 | 0.0 | 0.00 | 0.00 | 0.00 | 95 | 1013.9 |
| 20260905103044 | 74 | 80 | 0.0 | 0.0 | 0.00 | 0.00 | 0.00 | 95 | 1014.0 |
| 20260905101516 | 74 | 80 | 0.0 | 0.0 | 0.00 | 0.00 | 0.00 | 95 | 1013.9 |